Starlink 2692

operational
NORAD ID: 48434 Int'l Des: 2021-040 Owner: SPXS Country: US Constellation: starlink
LEOCIRCULARSTARLINK_TYPE

Starlink 2692について

説明を読み込み中...

リアルタイム位置

3D地球を読み込み中...

次回通過

高度履歴

Altitude vs Time

uPlot chart will show altitude changes over time

軌道要素

1 48434U 21040G 26035.83334490 .01446714 00000-0 77420-1 0 9998
2 48434 53.0746 304.5802 0001694 123.4196 145.1652 15.11383116 5771
Epoch: Feb 4, 2026 • Age: 10 hours

現在のステータス

高度 532.9 km
速度 7.60 km/s
衛星直下点 48.93°N, 167.96°W
打ち上げ日 May 9, 2021
運用期間 4.7 years
タイプ internet

技術仕様

分類 Payload
質量 260.00 kg
乾燥質量 248.00 kg
総質量 260.00 kg
長さ 0.20 m
直径 2.80 m
スパン 9.00 m
形状 Box + pan
製造者 SPXS
バスタイプ Starlink
フェーズステータス In Orbit
所有者/国 SPXS/US

大規模コンステレーション

Loading constellations...